Year,Month,Day,Hour,Minute,Value (Times are PST for temperature in C)
2020,04,10,00,00,7.10
2020,04,10,00,01,7.10
2020,04,10,00,02,7.10
2020,04,10,00,03,7.00
2020,04,10,00,04,7.00
2020,04,10,00,05,7.00
2020,04,10,00,06,7.00
2020,04,10,00,07,6.90
2020,04,10,00,08,6.90
2020,04,10,00,09,6.90
2020,04,10,00,10,6.90
2020,04,10,00,11,6.90
2020,04,10,00,12,6.80
2020,04,10,00,13,6.80
2020,04,10,00,14,6.80
2020,04,10,00,15,6.80
2020,04,10,00,16,6.80
2020,04,10,00,17,6.70
2020,04,10,00,18,6.70
2020,04,10,00,19,6.70
2020,04,10,00,20,6.70
2020,04,10,00,21,6.70
2020,04,10,00,22,6.60
2020,04,10,00,23,6.60
2020,04,10,00,24,6.60
2020,04,10,00,25,6.60
2020,04,10,00,26,6.60
2020,04,10,00,27,6.60
2020,04,10,00,28,6.50
2020,04,10,00,29,6.50
2020,04,10,00,30,6.50
2020,04,10,00,31,6.40
2020,04,10,00,32,6.40
2020,04,10,00,33,6.40
2020,04,10,00,34,6.40
2020,04,10,00,35,6.40
2020,04,10,00,36,6.40
2020,04,10,00,37,6.40
2020,04,10,00,38,6.30
2020,04,10,00,39,6.30
2020,04,10,00,40,6.30
2020,04,10,00,41,6.30
2020,04,10,00,42,6.30
2020,04,10,00,43,6.30
2020,04,10,00,44,6.20
2020,04,10,00,45,6.20
2020,04,10,00,46,6.20
2020,04,10,00,47,6.20
2020,04,10,00,48,6.20
2020,04,10,00,49,6.20
2020,04,10,00,50,6.20
2020,04,10,00,51,6.10
2020,04,10,00,52,6.10
2020,04,10,00,53,6.10
2020,04,10,00,54,6.10
2020,04,10,00,55,6.10
2020,04,10,00,56,6.00
2020,04,10,00,57,6.00
2020,04,10,00,58,6.00
2020,04,10,00,59,6.00
2020,04,10,01,00,5.90
2020,04,10,01,01,5.90
2020,04,10,01,02,5.90
2020,04,10,01,03,5.90
2020,04,10,01,04,5.90
2020,04,10,01,05,5.90
2020,04,10,01,06,5.80
2020,04,10,01,07,5.80
2020,04,10,01,08,5.80
2020,04,10,01,09,5.80
2020,04,10,01,10,5.80
2020,04,10,01,11,5.80
2020,04,10,01,12,5.80
2020,04,10,01,13,5.80
2020,04,10,01,14,5.70
2020,04,10,01,15,5.70
2020,04,10,01,16,5.70
2020,04,10,01,17,5.70
2020,04,10,01,18,5.70
2020,04,10,01,19,5.70
2020,04,10,01,20,5.70
2020,04,10,01,21,5.60
2020,04,10,01,22,5.60
2020,04,10,01,23,5.60
2020,04,10,01,24,5.60
2020,04,10,01,25,5.60
2020,04,10,01,26,5.60
2020,04,10,01,27,5.60
2020,04,10,01,28,5.50
2020,04,10,01,29,5.50
2020,04,10,01,30,5.50
2020,04,10,01,31,5.50
2020,04,10,01,32,5.50
2020,04,10,01,33,5.50
2020,04,10,01,34,5.50
2020,04,10,01,35,5.50
2020,04,10,01,36,5.50
2020,04,10,01,37,5.40
2020,04,10,01,38,5.40
2020,04,10,01,39,5.40
2020,04,10,01,40,5.40
2020,04,10,01,41,5.40
2020,04,10,01,42,5.40
2020,04,10,01,43,5.40
2020,04,10,01,44,5.40
2020,04,10,01,45,5.40
2020,04,10,01,46,5.40
2020,04,10,01,47,5.40
2020,04,10,01,48,5.30
2020,04,10,01,49,5.30
2020,04,10,01,50,5.30
2020,04,10,01,51,5.30
2020,04,10,01,52,5.30
2020,04,10,01,53,5.30
2020,04,10,01,54,5.30
2020,04,10,01,55,5.30
2020,04,10,01,56,5.30
2020,04,10,01,57,5.30
2020,04,10,01,58,5.30
2020,04,10,01,59,5.20
2020,04,10,02,00,5.20
2020,04,10,02,01,5.20
2020,04,10,02,02,5.20
2020,04,10,02,03,5.20
2020,04,10,02,04,5.20
2020,04,10,02,05,5.20
2020,04,10,02,06,5.20
2020,04,10,02,07,5.10
2020,04,10,02,08,5.10
2020,04,10,02,09,5.10
2020,04,10,02,10,5.10
2020,04,10,02,11,5.10
2020,04,10,02,12,5.10
2020,04,10,02,13,5.10
2020,04,10,02,14,5.10
2020,04,10,02,15,5.00
2020,04,10,02,16,5.00
2020,04,10,02,17,5.00
2020,04,10,02,18,5.00
2020,04,10,02,19,4.90
2020,04,10,02,20,4.90
2020,04,10,02,21,4.90
2020,04,10,02,22,4.90
2020,04,10,02,23,4.90
2020,04,10,02,24,4.90
2020,04,10,02,25,4.90
2020,04,10,02,26,4.90
2020,04,10,02,27,4.90
2020,04,10,02,28,4.80
2020,04,10,02,29,4.80
2020,04,10,02,30,4.80
2020,04,10,02,31,4.80
2020,04,10,02,32,4.80
2020,04,10,02,33,4.80
2020,04,10,02,34,4.80
2020,04,10,02,35,4.80
2020,04,10,02,36,4.80
2020,04,10,02,37,4.70
2020,04,10,02,38,4.70
2020,04,10,02,39,4.70
2020,04,10,02,40,4.70
2020,04,10,02,41,4.70
2020,04,10,02,42,4.70
2020,04,10,02,43,4.70
2020,04,10,02,44,4.70
2020,04,10,02,45,4.70
2020,04,10,02,46,4.70
2020,04,10,02,47,4.70
2020,04,10,02,48,4.70
2020,04,10,02,49,4.70
2020,04,10,02,50,4.70
2020,04,10,02,51,4.70
2020,04,10,02,52,4.70
2020,04,10,02,53,4.70
2020,04,10,02,54,4.70
2020,04,10,02,55,4.70
2020,04,10,02,56,4.70
2020,04,10,02,57,4.70
2020,04,10,02,58,4.70
2020,04,10,02,59,4.70
2020,04,10,03,00,4.70
2020,04,10,03,01,4.70
2020,04,10,03,02,4.60
2020,04,10,03,03,4.60
2020,04,10,03,04,4.60
2020,04,10,03,05,4.60
2020,04,10,03,06,4.60
2020,04,10,03,07,4.60
2020,04,10,03,08,4.60
2020,04,10,03,09,4.50
2020,04,10,03,10,4.50
2020,04,10,03,11,4.50
2020,04,10,03,12,4.50
2020,04,10,03,13,4.40
2020,04,10,03,14,4.40
2020,04,10,03,15,4.40
2020,04,10,03,16,4.40
2020,04,10,03,17,4.40
2020,04,10,03,18,4.40
2020,04,10,03,19,4.30
2020,04,10,03,20,4.30
2020,04,10,03,21,4.30
2020,04,10,03,22,4.30
2020,04,10,03,23,4.30
2020,04,10,03,24,4.30
2020,04,10,03,25,4.30
2020,04,10,03,26,4.30
2020,04,10,03,27,4.30
2020,04,10,03,28,4.30
2020,04,10,03,29,4.30
2020,04,10,03,30,4.30
2020,04,10,03,31,4.30
2020,04,10,03,32,4.30
2020,04,10,03,33,4.30
2020,04,10,03,34,4.30
2020,04,10,03,35,4.30
2020,04,10,03,36,4.40
2020,04,10,03,37,4.50
2020,04,10,03,38,4.60
2020,04,10,03,39,4.70
2020,04,10,03,40,4.70
2020,04,10,03,41,4.70
2020,04,10,03,42,4.70
2020,04,10,03,43,4.70
2020,04,10,03,44,4.70
2020,04,10,03,45,4.60
2020,04,10,03,46,4.60
2020,04,10,03,47,4.60
2020,04,10,03,48,4.60
2020,04,10,03,49,4.60
2020,04,10,03,50,4.50
2020,04,10,03,51,4.50
2020,04,10,03,52,4.40
2020,04,10,03,53,4.40
2020,04,10,03,54,4.40
2020,04,10,03,55,4.40
2020,04,10,03,56,4.40
2020,04,10,03,57,4.30
2020,04,10,03,58,4.30
2020,04,10,03,59,4.30
2020,04,10,04,00,4.30
2020,04,10,04,01,4.30
2020,04,10,04,02,4.20
2020,04,10,04,03,4.20
2020,04,10,04,04,4.20
2020,04,10,04,05,4.20
2020,04,10,04,06,4.20
2020,04,10,04,07,4.20
2020,04,10,04,08,4.20
2020,04,10,04,09,4.10
2020,04,10,04,10,4.10
2020,04,10,04,11,4.10
2020,04,10,04,12,4.10
2020,04,10,04,13,4.10
2020,04,10,04,14,4.10
2020,04,10,04,15,4.00
2020,04,10,04,16,4.00
2020,04,10,04,17,4.00
2020,04,10,04,18,3.90
2020,04,10,04,19,3.90
2020,04,10,04,20,3.90
2020,04,10,04,21,3.90
2020,04,10,04,22,3.90
2020,04,10,04,23,3.90
2020,04,10,04,24,3.80
2020,04,10,04,25,3.80
2020,04,10,04,26,3.80
2020,04,10,04,27,3.80
2020,04,10,04,28,3.80
2020,04,10,04,29,3.80
2020,04,10,04,30,3.70
2020,04,10,04,31,3.70
2020,04,10,04,32,3.70
2020,04,10,04,33,3.70
2020,04,10,04,34,3.70
2020,04,10,04,35,3.70
2020,04,10,04,36,3.70
2020,04,10,04,37,3.60
2020,04,10,04,38,3.60
2020,04,10,04,39,3.60
2020,04,10,04,40,3.60
2020,04,10,04,41,3.60
2020,04,10,04,42,3.60
2020,04,10,04,43,3.60
2020,04,10,04,44,3.60
2020,04,10,04,45,3.50
2020,04,10,04,46,3.50
2020,04,10,04,47,3.50
2020,04,10,04,48,3.50
2020,04,10,04,49,3.50
2020,04,10,04,50,3.50
2020,04,10,04,51,3.40
2020,04,10,04,52,3.40
2020,04,10,04,53,3.40
2020,04,10,04,54,3.40
2020,04,10,04,55,3.40
2020,04,10,04,56,3.40
2020,04,10,04,57,3.40
2020,04,10,04,58,3.40
2020,04,10,04,59,3.40
2020,04,10,05,00,3.40
2020,04,10,05,01,3.40
2020,04,10,05,02,3.40
2020,04,10,05,03,3.40
2020,04,10,05,04,3.40
2020,04,10,05,05,3.30
2020,04,10,05,06,3.30
2020,04,10,05,07,3.30
2020,04,10,05,08,3.30
2020,04,10,05,09,3.30
2020,04,10,05,10,3.30
2020,04,10,05,11,3.30
2020,04,10,05,12,3.30
2020,04,10,05,13,3.30
2020,04,10,05,14,3.30
2020,04,10,05,15,3.30
2020,04,10,05,16,3.20
2020,04,10,05,17,3.20
2020,04,10,05,18,3.20
2020,04,10,05,19,3.20
2020,04,10,05,20,3.20
2020,04,10,05,21,3.20
2020,04,10,05,22,3.20
2020,04,10,05,23,3.20
2020,04,10,05,24,3.20
2020,04,10,05,25,3.20
2020,04,10,05,26,3.20
2020,04,10,05,27,3.20
2020,04,10,05,28,3.20
2020,04,10,05,29,3.20
2020,04,10,05,30,3.20
2020,04,10,05,31,3.20
2020,04,10,05,32,3.20
2020,04,10,05,33,3.20
2020,04,10,05,34,3.20
2020,04,10,05,35,3.10
2020,04,10,05,36,3.10
2020,04,10,05,37,3.10
2020,04,10,05,38,3.10
2020,04,10,05,39,3.10
2020,04,10,05,40,3.10
2020,04,10,05,41,3.10
2020,04,10,05,42,3.10
2020,04,10,05,43,3.10
2020,04,10,05,44,3.10
2020,04,10,05,45,3.10
2020,04,10,05,46,3.10
2020,04,10,05,47,3.10
2020,04,10,05,48,3.10
2020,04,10,05,49,3.10
2020,04,10,05,50,3.10
2020,04,10,05,51,3.10
2020,04,10,05,52,3.10
2020,04,10,05,53,3.10
2020,04,10,05,54,3.10
2020,04,10,05,55,3.10
2020,04,10,05,56,3.10
2020,04,10,05,57,3.00
2020,04,10,05,58,3.00
2020,04,10,05,59,3.00
2020,04,10,06,00,3.00
2020,04,10,06,01,3.00
2020,04,10,06,02,3.00
2020,04,10,06,03,2.90
2020,04,10,06,04,2.90
2020,04,10,06,05,2.90
2020,04,10,06,06,2.90
2020,04,10,06,07,2.90
2020,04,10,06,08,2.90
2020,04,10,06,09,2.90
2020,04,10,06,10,2.90
2020,04,10,06,11,2.90
2020,04,10,06,12,2.90
2020,04,10,06,13,2.80
2020,04,10,06,14,2.80
2020,04,10,06,15,2.80
2020,04,10,06,16,2.80
2020,04,10,06,17,2.80
2020,04,10,06,18,2.80
2020,04,10,06,19,2.80
2020,04,10,06,20,2.80
2020,04,10,06,21,2.80
2020,04,10,06,22,2.80
2020,04,10,06,23,2.80
2020,04,10,06,24,2.80
2020,04,10,06,25,2.80
2020,04,10,06,26,2.70
2020,04,10,06,27,2.70
2020,04,10,06,28,2.70
2020,04,10,06,29,2.70
2020,04,10,06,30,2.70
2020,04,10,06,31,2.70
2020,04,10,06,32,2.70
2020,04,10,06,33,2.70
2020,04,10,06,34,2.70
2020,04,10,06,35,2.70
2020,04,10,06,36,2.70
2020,04,10,06,37,2.70
2020,04,10,06,38,2.60
2020,04,10,06,39,2.60
2020,04,10,06,40,2.60
2020,04,10,06,41,2.60
2020,04,10,06,42,2.60
2020,04,10,06,43,2.60
2020,04,10,06,44,2.60
2020,04,10,06,45,2.60
2020,04,10,06,46,2.60
2020,04,10,06,47,2.60
2020,04,10,06,48,2.60
2020,04,10,06,49,2.60
2020,04,10,06,50,2.60
2020,04,10,06,51,2.50
2020,04,10,06,52,2.60
2020,04,10,06,53,2.50
2020,04,10,06,54,2.50
2020,04,10,06,55,2.50
2020,04,10,06,56,2.50
2020,04,10,06,57,2.50
2020,04,10,06,58,2.50
2020,04,10,06,59,2.50
2020,04,10,07,00,2.50
2020,04,10,07,01,2.50
2020,04,10,07,02,2.50
2020,04,10,07,03,2.50
2020,04,10,07,04,2.50
2020,04,10,07,05,2.50
2020,04,10,07,06,2.50
2020,04,10,07,07,2.40
2020,04,10,07,08,2.40
2020,04,10,07,09,2.40
2020,04,10,07,10,2.40
2020,04,10,07,11,2.40
2020,04,10,07,12,2.40
2020,04,10,07,13,2.40
2020,04,10,07,14,2.40
2020,04,10,07,15,2.40
2020,04,10,07,16,2.40
2020,04,10,07,17,2.40
2020,04,10,07,18,2.40
2020,04,10,07,19,2.40
2020,04,10,07,20,2.40
2020,04,10,07,21,2.40
2020,04,10,07,22,2.40
2020,04,10,07,23,2.40
2020,04,10,07,24,2.40
2020,04,10,07,25,2.40
2020,04,10,07,26,2.40
2020,04,10,07,27,2.40
2020,04,10,07,28,2.40
2020,04,10,07,29,2.40
2020,04,10,07,30,2.40
2020,04,10,07,31,2.50
2020,04,10,07,32,2.50
2020,04,10,07,33,2.50
2020,04,10,07,34,2.50
2020,04,10,07,35,2.50
2020,04,10,07,36,2.50
2020,04,10,07,37,2.50
2020,04,10,07,38,2.50
2020,04,10,07,39,2.50
2020,04,10,07,40,2.50
2020,04,10,07,41,2.50
2020,04,10,07,42,2.60
2020,04,10,07,43,2.60
2020,04,10,07,44,2.60
2020,04,10,07,45,2.60
2020,04,10,07,46,2.60
2020,04,10,07,47,2.60
2020,04,10,07,48,2.60
2020,04,10,07,49,2.60
2020,04,10,07,50,2.60
2020,04,10,07,51,2.60
2020,04,10,07,52,2.70
2020,04,10,07,53,2.70
2020,04,10,07,54,2.70
2020,04,10,07,55,2.70
2020,04,10,07,56,2.70
2020,04,10,07,57,2.70
2020,04,10,07,58,2.70
2020,04,10,07,59,2.70
2020,04,10,08,00,2.80
2020,04,10,08,01,2.80
2020,04,10,08,02,2.80
2020,04,10,08,03,2.80
2020,04,10,08,04,2.80
2020,04,10,08,05,2.80
2020,04,10,08,06,2.80
2020,04,10,08,07,2.80
2020,04,10,08,08,2.90
2020,04,10,08,09,3.00
2020,04,10,08,10,3.00
2020,04,10,08,11,3.10
2020,04,10,08,12,3.20
2020,04,10,08,13,3.30
2020,04,10,08,14,3.30
2020,04,10,08,15,3.40
2020,04,10,08,16,3.40
2020,04,10,08,17,3.50
2020,04,10,08,18,3.50
2020,04,10,08,19,3.60
2020,04,10,08,20,3.60
2020,04,10,08,21,3.70
2020,04,10,08,22,3.70
2020,04,10,08,23,3.80
2020,04,10,08,24,3.80
2020,04,10,08,25,3.80
2020,04,10,08,26,3.90
2020,04,10,08,27,3.90
2020,04,10,08,28,4.00
2020,04,10,08,29,4.00
2020,04,10,08,30,4.10
2020,04,10,08,31,4.20
2020,04,10,08,32,4.20
2020,04,10,08,33,4.30
2020,04,10,08,34,4.50
2020,04,10,08,35,4.60
2020,04,10,08,36,4.80
2020,04,10,08,37,5.00
2020,04,10,08,38,5.10
2020,04,10,08,39,5.20
2020,04,10,08,40,5.30
2020,04,10,08,41,5.40
2020,04,10,08,42,5.60
2020,04,10,08,43,5.70
2020,04,10,08,44,5.70
2020,04,10,08,45,5.80
2020,04,10,08,46,5.90
2020,04,10,08,47,5.90
2020,04,10,08,48,6.00
2020,04,10,08,49,6.10
2020,04,10,08,50,6.20
2020,04,10,08,51,6.30
2020,04,10,08,52,6.40
2020,04,10,08,53,6.50
2020,04,10,08,54,6.50
2020,04,10,08,55,6.60
2020,04,10,08,56,6.70
2020,04,10,08,57,6.90
2020,04,10,08,58,7.00
2020,04,10,08,59,7.10
2020,04,10,09,00,7.10
2020,04,10,09,01,7.20
2020,04,10,09,02,7.20
2020,04,10,09,03,7.20
2020,04,10,09,04,7.10
2020,04,10,09,05,7.10
2020,04,10,09,06,7.10
2020,04,10,09,07,7.10
2020,04,10,09,08,7.10
2020,04,10,09,09,7.10
2020,04,10,09,10,7.10
2020,04,10,09,11,7.10
2020,04,10,09,12,7.20
2020,04,10,09,13,7.20
2020,04,10,09,14,7.20
2020,04,10,09,15,7.20
2020,04,10,09,16,7.30
2020,04,10,09,17,7.30
2020,04,10,09,18,7.40
2020,04,10,09,19,7.40
2020,04,10,09,20,7.50
2020,04,10,09,21,7.60
2020,04,10,09,22,7.60
2020,04,10,09,23,7.70
2020,04,10,09,24,7.70
2020,04,10,09,25,7.80
2020,04,10,09,26,7.80
2020,04,10,09,27,7.90
2020,04,10,09,28,7.90
2020,04,10,09,29,8.00
2020,04,10,09,30,8.00
2020,04,10,09,31,8.10
2020,04,10,09,32,8.10
2020,04,10,09,33,8.20
2020,04,10,09,34,8.30
2020,04,10,09,35,8.40
2020,04,10,09,36,8.50
2020,04,10,09,37,8.50
2020,04,10,09,38,8.60
2020,04,10,09,39,8.60
2020,04,10,09,40,8.60
2020,04,10,09,41,8.70
2020,04,10,09,42,8.70
2020,04,10,09,43,8.70
2020,04,10,09,44,8.80
2020,04,10,09,45,8.80
2020,04,10,09,46,8.80
2020,04,10,09,47,8.90
2020,04,10,09,48,8.90
2020,04,10,09,49,9.00
2020,04,10,09,50,9.00
2020,04,10,09,51,9.10
2020,04,10,09,52,9.10
2020,04,10,09,53,9.20
2020,04,10,09,54,9.20
2020,04,10,09,55,9.30
2020,04,10,09,56,9.30
2020,04,10,09,57,9.30
2020,04,10,09,58,9.30
2020,04,10,09,59,9.40
2020,04,10,10,00,9.40
2020,04,10,10,01,9.50
2020,04,10,10,02,9.60
2020,04,10,10,03,9.60
2020,04,10,10,04,9.70
2020,04,10,10,05,9.70
2020,04,10,10,06,9.70
2020,04,10,10,07,9.70
2020,04,10,10,08,9.80
2020,04,10,10,09,9.80
2020,04,10,10,10,9.90
2020,04,10,10,11,9.90
2020,04,10,10,12,9.90
2020,04,10,10,13,10.00
2020,04,10,10,14,10.00
2020,04,10,10,15,10.10
2020,04,10,10,16,10.10
2020,04,10,10,17,10.20
2020,04,10,10,18,10.20
2020,04,10,10,19,10.30
2020,04,10,10,20,10.30
2020,04,10,10,21,10.40
2020,04,10,10,22,10.40
2020,04,10,10,23,10.40
2020,04,10,10,24,10.40
2020,04,10,10,25,10.40
2020,04,10,10,26,10.50
2020,04,10,10,27,10.50
2020,04,10,10,28,10.60
2020,04,10,10,29,10.60
2020,04,10,10,30,10.70
2020,04,10,10,31,10.80
2020,04,10,10,32,10.80
2020,04,10,10,33,10.90
2020,04,10,10,34,10.90
2020,04,10,10,35,11.00
2020,04,10,10,36,11.10
2020,04,10,10,37,11.20
2020,04,10,10,38,11.20
2020,04,10,10,39,11.20
2020,04,10,10,40,11.30
2020,04,10,10,41,11.30
2020,04,10,10,42,11.30
2020,04,10,10,43,11.30
2020,04,10,10,44,11.40
2020,04,10,10,45,11.50
2020,04,10,10,46,11.60
2020,04,10,10,47,11.60
2020,04,10,10,48,11.70
2020,04,10,10,49,11.70
2020,04,10,10,50,11.70
2020,04,10,10,51,11.70
2020,04,10,10,52,11.70
2020,04,10,10,53,11.80
2020,04,10,10,54,11.80
2020,04,10,10,55,11.90
2020,04,10,10,56,11.90
2020,04,10,10,57,12.00
2020,04,10,10,58,12.10
2020,04,10,10,59,12.10
2020,04,10,11,00,12.10
2020,04,10,11,01,12.10
2020,04,10,11,02,12.10
2020,04,10,11,03,12.20
2020,04,10,11,04,12.20
2020,04,10,11,05,12.30
2020,04,10,11,06,12.30
2020,04,10,11,07,12.40
2020,04,10,11,08,12.50
2020,04,10,11,09,12.60
2020,04,10,11,10,12.70
2020,04,10,11,11,12.70
2020,04,10,11,12,12.80
2020,04,10,11,13,12.80
2020,04,10,11,14,12.80
2020,04,10,11,15,12.80
2020,04,10,11,16,12.90
2020,04,10,11,17,12.90
2020,04,10,11,18,12.90
2020,04,10,11,19,12.90
2020,04,10,11,20,13.00
2020,04,10,11,21,13.10
2020,04,10,11,22,13.10
2020,04,10,11,23,13.20
2020,04,10,11,24,13.20
2020,04,10,11,25,13.20
2020,04,10,11,26,13.20
2020,04,10,11,27,13.20
2020,04,10,11,28,13.20
2020,04,10,11,29,13.20
2020,04,10,11,30,13.20
2020,04,10,11,31,13.20
2020,04,10,11,32,13.30
2020,04,10,11,33,13.30
2020,04,10,11,34,13.40
2020,04,10,11,35,13.40
2020,04,10,11,36,13.50
2020,04,10,11,37,13.50
2020,04,10,11,38,13.50
2020,04,10,11,39,13.50
2020,04,10,11,40,13.50
2020,04,10,11,41,13.50
2020,04,10,11,42,13.60
2020,04,10,11,43,13.70
2020,04,10,11,44,13.70
2020,04,10,11,45,13.80
2020,04,10,11,46,13.80
2020,04,10,11,47,13.80
2020,04,10,11,48,13.80
2020,04,10,11,49,13.90
2020,04,10,11,50,13.90
2020,04,10,11,51,13.90
2020,04,10,11,52,13.90
2020,04,10,11,53,13.90
2020,04,10,11,54,14.00
2020,04,10,11,55,14.00
2020,04,10,11,56,14.10
2020,04,10,11,57,14.10
2020,04,10,11,58,14.20
2020,04,10,11,59,14.30
2020,04,10,12,00,14.40
2020,04,10,12,01,14.50
2020,04,10,12,02,14.60
2020,04,10,12,03,14.60
2020,04,10,12,04,14.70
2020,04,10,12,05,14.80
2020,04,10,12,06,15.00
2020,04,10,12,07,15.20
2020,04,10,12,08,15.40
2020,04,10,12,09,15.50
2020,04,10,12,10,15.60
2020,04,10,12,11,15.60
2020,04,10,12,12,15.70
2020,04,10,12,13,15.70
2020,04,10,12,14,15.70
2020,04,10,12,15,15.60
2020,04,10,12,16,15.60
2020,04,10,12,17,15.60
2020,04,10,12,18,15.60
2020,04,10,12,19,15.60
2020,04,10,12,20,15.60
2020,04,10,12,21,15.60
2020,04,10,12,22,15.60
2020,04,10,12,23,15.70
2020,04,10,12,24,15.70
2020,04,10,12,25,15.80
2020,04,10,12,26,15.90
2020,04,10,12,27,15.90
2020,04,10,12,28,15.90
2020,04,10,12,29,16.00
2020,04,10,12,30,16.10
2020,04,10,12,31,16.10
2020,04,10,12,32,16.20
2020,04,10,12,33,16.20
2020,04,10,12,34,16.20
2020,04,10,12,35,16.20
2020,04,10,12,36,16.20
2020,04,10,12,37,16.20
2020,04,10,12,38,16.30
2020,04,10,12,39,16.30
2020,04,10,12,40,16.40
2020,04,10,12,41,16.40
2020,04,10,12,42,16.40
2020,04,10,12,43,16.40
2020,04,10,12,44,16.40
2020,04,10,12,45,16.50
2020,04,10,12,46,16.60
2020,04,10,12,47,16.70
2020,04,10,12,48,16.80
2020,04,10,12,49,17.00
2020,04,10,12,50,17.00
2020,04,10,12,51,17.10
2020,04,10,12,52,17.20
2020,04,10,12,53,17.20
2020,04,10,12,54,17.20
2020,04,10,12,55,17.20
2020,04,10,12,56,17.10
2020,04,10,12,57,16.90
2020,04,10,12,58,16.80
2020,04,10,12,59,16.70
2020,04,10,13,00,16.70
2020,04,10,13,01,16.70
2020,04,10,13,02,16.70
2020,04,10,13,03,16.80
2020,04,10,13,04,16.80
2020,04,10,13,05,16.80
2020,04,10,13,06,16.90
2020,04,10,13,07,16.90
2020,04,10,13,08,16.90
2020,04,10,13,09,16.90
2020,04,10,13,10,16.90
2020,04,10,13,11,17.00
2020,04,10,13,12,17.00
2020,04,10,13,13,17.10
2020,04,10,13,14,17.10
2020,04,10,13,15,17.10
2020,04,10,13,16,17.10
2020,04,10,13,17,17.10
2020,04,10,13,18,17.10
2020,04,10,13,19,17.10
2020,04,10,13,20,17.10
2020,04,10,13,21,17.10
2020,04,10,13,22,17.10
2020,04,10,13,23,17.10
2020,04,10,13,24,17.10
2020,04,10,13,25,17.10
2020,04,10,13,26,17.10
2020,04,10,13,27,17.10
2020,04,10,13,28,17.10
2020,04,10,13,29,17.10
2020,04,10,13,30,17.10
2020,04,10,13,31,17.10
2020,04,10,13,32,17.10
2020,04,10,13,33,17.10
2020,04,10,13,34,17.20
2020,04,10,13,35,17.20
2020,04,10,13,36,17.20
2020,04,10,13,37,17.20
2020,04,10,13,38,17.20
2020,04,10,13,39,17.30
2020,04,10,13,40,17.30
2020,04,10,13,41,17.40
2020,04,10,13,42,17.50
2020,04,10,13,43,17.60
2020,04,10,13,44,17.60
2020,04,10,13,45,17.60
2020,04,10,13,46,17.60
2020,04,10,13,47,17.60
2020,04,10,13,48,17.60
2020,04,10,13,49,17.70
2020,04,10,13,50,17.70
2020,04,10,13,51,17.70
2020,04,10,13,52,17.70
2020,04,10,13,53,17.70
2020,04,10,13,54,17.70
2020,04,10,13,55,17.70
2020,04,10,13,56,17.70
2020,04,10,13,57,17.70
2020,04,10,13,58,17.80
2020,04,10,13,59,17.80
2020,04,10,14,00,17.70
2020,04,10,14,01,17.70
2020,04,10,14,02,17.70
2020,04,10,14,03,17.70
2020,04,10,14,04,17.80
2020,04,10,14,05,17.90
2020,04,10,14,06,17.90
2020,04,10,14,07,17.90
2020,04,10,14,08,17.90
2020,04,10,14,09,17.90
2020,04,10,14,10,17.90
2020,04,10,14,11,18.00
2020,04,10,14,12,18.00
2020,04,10,14,13,18.00
2020,04,10,14,14,18.00
2020,04,10,14,15,18.00
2020,04,10,14,16,18.10
2020,04,10,14,17,18.20
2020,04,10,14,18,18.20
2020,04,10,14,19,18.20
2020,04,10,14,20,18.20
2020,04,10,14,21,18.20
2020,04,10,14,22,18.30
2020,04,10,14,23,18.20
2020,04,10,14,24,18.20
2020,04,10,14,25,18.20
2020,04,10,14,26,18.20
2020,04,10,14,27,18.20
2020,04,10,14,28,18.20
2020,04,10,14,29,18.20
2020,04,10,14,30,18.20
2020,04,10,14,31,18.20
2020,04,10,14,32,18.10
2020,04,10,14,33,18.10
2020,04,10,14,34,18.10
2020,04,10,14,35,18.20
2020,04,10,14,36,18.10
2020,04,10,14,37,18.10
2020,04,10,14,38,18.10
2020,04,10,14,39,18.00
2020,04,10,14,40,18.00
2020,04,10,14,41,17.90
2020,04,10,14,42,17.90
2020,04,10,14,43,17.90
2020,04,10,14,44,17.90
2020,04,10,14,45,17.90
2020,04,10,14,46,17.90
2020,04,10,14,47,17.90
2020,04,10,14,48,17.90
2020,04,10,14,49,17.90
2020,04,10,14,50,17.90
2020,04,10,14,51,17.90
2020,04,10,14,52,17.90
2020,04,10,14,53,18.00
2020,04,10,14,54,18.10
2020,04,10,14,55,18.10
2020,04,10,14,56,18.20
2020,04,10,14,57,18.20
2020,04,10,14,58,18.30
2020,04,10,14,59,18.30
2020,04,10,15,00,18.20
2020,04,10,15,01,18.20
2020,04,10,15,02,18.10
2020,04,10,15,03,18.10
2020,04,10,15,04,18.10
2020,04,10,15,05,18.10
2020,04,10,15,06,18.10
2020,04,10,15,07,18.10
2020,04,10,15,08,18.20
2020,04,10,15,09,18.20
2020,04,10,15,10,18.20
2020,04,10,15,11,18.20
2020,04,10,15,12,18.20
2020,04,10,15,13,18.20
2020,04,10,15,14,18.10
2020,04,10,15,15,18.10
2020,04,10,15,16,18.10
2020,04,10,15,17,18.10
2020,04,10,15,18,18.10
2020,04,10,15,19,18.10
2020,04,10,15,20,18.20
2020,04,10,15,21,18.20
2020,04,10,15,22,18.20
2020,04,10,15,23,18.20
2020,04,10,15,24,18.20
2020,04,10,15,25,18.20
2020,04,10,15,26,18.30
2020,04,10,15,27,18.30
2020,04,10,15,28,18.40
2020,04,10,15,29,18.40
2020,04,10,15,30,18.50
2020,04,10,15,31,18.50
2020,04,10,15,32,18.60
2020,04,10,15,33,18.70
2020,04,10,15,34,18.80
2020,04,10,15,35,18.90
2020,04,10,15,36,19.00
2020,04,10,15,37,19.10
2020,04,10,15,38,19.10
2020,04,10,15,39,19.10
2020,04,10,15,40,19.10
2020,04,10,15,41,19.20
2020,04,10,15,42,19.20
2020,04,10,15,43,19.30
2020,04,10,15,44,19.40
2020,04,10,15,45,19.40
2020,04,10,15,46,19.40
2020,04,10,15,47,19.30
2020,04,10,15,48,19.30
2020,04,10,15,49,19.30
2020,04,10,15,50,19.30
2020,04,10,15,51,19.30
2020,04,10,15,52,19.30
2020,04,10,15,53,19.30
2020,04,10,15,54,19.20
2020,04,10,15,55,19.20
2020,04,10,15,56,19.20
2020,04,10,15,57,19.20
2020,04,10,15,58,19.20
2020,04,10,15,59,19.10
2020,04,10,16,00,19.00
2020,04,10,16,01,19.00
2020,04,10,16,02,18.90
2020,04,10,16,03,18.80
2020,04,10,16,04,18.70
2020,04,10,16,05,18.80
2020,04,10,16,06,18.80
2020,04,10,16,07,18.80
2020,04,10,16,08,18.80
2020,04,10,16,09,18.80
2020,04,10,16,10,18.80
2020,04,10,16,11,18.80
2020,04,10,16,12,18.90
2020,04,10,16,13,19.00
2020,04,10,16,14,19.00
2020,04,10,16,15,19.10
2020,04,10,16,16,19.10
2020,04,10,16,17,19.20
2020,04,10,16,18,19.20
2020,04,10,16,19,19.20
2020,04,10,16,20,19.30
2020,04,10,16,21,19.30
2020,04,10,16,22,19.40
2020,04,10,16,23,19.50
2020,04,10,16,24,19.50
2020,04,10,16,25,19.50
2020,04,10,16,26,19.50
2020,04,10,16,27,19.50
2020,04,10,16,28,19.60
2020,04,10,16,29,19.60
2020,04,10,16,30,19.60
2020,04,10,16,31,19.50
2020,04,10,16,32,19.50
2020,04,10,16,33,19.40
2020,04,10,16,34,19.30
2020,04,10,16,35,19.30
2020,04,10,16,36,19.30
2020,04,10,16,37,19.30
2020,04,10,16,38,19.30
2020,04,10,16,39,19.30
2020,04,10,16,40,19.30
2020,04,10,16,41,19.30
2020,04,10,16,42,19.30
2020,04,10,16,43,19.30
2020,04,10,16,44,19.30
2020,04,10,16,45,19.30
2020,04,10,16,46,19.30
2020,04,10,16,47,19.20
2020,04,10,16,48,19.20
2020,04,10,16,49,19.20
2020,04,10,16,50,19.20
2020,04,10,16,51,19.20
2020,04,10,16,52,19.20
2020,04,10,16,53,19.10
2020,04,10,16,54,19.10
2020,04,10,16,55,19.00
2020,04,10,16,56,19.00
2020,04,10,16,57,18.90
2020,04,10,16,58,18.90
2020,04,10,16,59,18.90
2020,04,10,17,00,18.90
2020,04,10,17,01,18.90
2020,04,10,17,02,19.00
2020,04,10,17,03,19.00
2020,04,10,17,04,19.10
2020,04,10,17,05,19.10
2020,04,10,17,06,19.10
2020,04,10,17,07,19.10
2020,04,10,17,08,19.10
2020,04,10,17,09,19.10
2020,04,10,17,10,19.10
2020,04,10,17,11,19.20
2020,04,10,17,12,19.20
2020,04,10,17,13,19.30
2020,04,10,17,14,19.30
2020,04,10,17,15,19.30
2020,04,10,17,16,19.30
2020,04,10,17,17,19.20
2020,04,10,17,18,19.20
2020,04,10,17,19,19.10
2020,04,10,17,20,19.10
2020,04,10,17,21,19.20
2020,04,10,17,22,19.20
2020,04,10,17,23,19.20
2020,04,10,17,24,19.20
2020,04,10,17,25,19.10
2020,04,10,17,26,19.10
2020,04,10,17,27,19.00
2020,04,10,17,28,18.90
2020,04,10,17,29,18.90
2020,04,10,17,30,18.80
2020,04,10,17,31,18.80
2020,04,10,17,32,18.70
2020,04,10,17,33,18.70
2020,04,10,17,34,18.70
2020,04,10,17,35,18.70
2020,04,10,17,36,18.70
2020,04,10,17,37,18.70
2020,04,10,17,38,18.70
2020,04,10,17,39,18.70
2020,04,10,17,40,18.60
2020,04,10,17,41,18.50
2020,04,10,17,42,18.50
2020,04,10,17,43,18.50
2020,04,10,17,44,18.40
2020,04,10,17,45,18.40
2020,04,10,17,46,18.40